• In Hungary
  • List of Countries
  • For 7 days
  • Water Temperature
  • Satellite Maps
  • Weather Map
  • News
  • Weather Widgets
  • user-avatar
    Login

    Hourly Weather Sloboda-Hulivs'ka

    Today, 15 October, Monday

    Time Temperature Precipitation Wind Pressure Humidity
    00:00 +10°C° 0 mm 2 mps 745 mmHg 55%
    01:00 +9°C° 0 mm 2 mps 745 mmHg 57%
    02:00 +9°C° 0 mm 2 mps 745 mmHg 59%
    03:00 +9°C° 0 mm 2 mps 745 mmHg 60%
    04:00 +8°C° 0 mm 2 mps 745 mmHg 60%
    05:00 +8°C° 0 mm 2 mps 745 mmHg 61%
    06:00 +9°C° 0 mm 2 mps 745 mmHg 60%
    07:00 +9°C° 0 mm 2 mps 745 mmHg 59%
    08:00 +10°C° 0 mm 2 mps 745 mmHg 55%
    09:00 +12°C° 0 mm 3 mps 745 mmHg 49%
    10:00 +14°C° 0 mm 3 mps 745 mmHg 44%
    11:00 +17°C° 0 mm 3 mps 745 mmHg 38%
    12:00 +18°C° 0 mm 3 mps 745 mmHg 36%
    13:00 +19°C° 0 mm 3 mps 744 mmHg 34%
    14:00 +20°C° 0 mm 3 mps 744 mmHg 31%
    15:00 +19°C° 0 mm 3 mps 744 mmHg 36%
    16:00 +18°C° 0 mm 3 mps 744 mmHg 40%
    17:00 +16°C° 0 mm 2 mps 743 mmHg 44%
    18:00 +14°C° 0 mm 3 mps 743 mmHg 47%
    19:00 +13°C° 0 mm 3 mps 743 mmHg 50%
    20:00 +12°C° 0 mm 3 mps 743 mmHg 52%
    21:00 +12°C° 0 mm 3 mps 743 mmHg 55%
    22:00 +12°C° 0 mm 3 mps 743 mmHg 58%
    23:00 +11°C° 0 mm 3 mps 743 mmHg 62%

    Tomorrow, 16 October, Tuesday

    Time Temperature Precipitation Wind Pressure Humidity
    00:00 +11°C° 0 mm 3 mps 743 mmHg 64%
    01:00 +11°C° 0 mm 3 mps 743 mmHg 67%
    02:00 +11°C° 0 mm 3 mps 743 mmHg 70%
    03:00 +10°C° 0 mm 2 mps 743 mmHg 72%
    04:00 +10°C° 0 mm 2 mps 743 mmHg 75%
    05:00 +10°C° 0 mm 2 mps 742 mmHg 77%
    06:00 +10°C° 0 mm 2 mps 743 mmHg 76%
    07:00 +12°C° 0 mm 2 mps 743 mmHg 74%
    08:00 +13°C° 0 mm 2 mps 743 mmHg 72%
    09:00 +14°C° 0 mm 3 mps 743 mmHg 64%
    10:00 +17°C° 0 mm 3 mps 743 mmHg 56%
    11:00 +19°C° 0 mm 3 mps 743 mmHg 48%
    12:00 +20°C° 0 mm 3 mps 743 mmHg 45%
    13:00 +21°C° 0 mm 3 mps 743 mmHg 42%
    14:00 +22°C° 0 mm 3 mps 743 mmHg 39%
    15:00 +21°C° 0 mm 3 mps 743 mmHg 43%
    16:00 +20°C° 0 mm 3 mps 742 mmHg 47%
    17:00 +18°C° 0 mm 2 mps 742 mmHg 52%
    18:00 +17°C° 0 mm 2 mps 742 mmHg 54%
    19:00 +17°C° 0 mm 2 mps 742 mmHg 57%
    20:00 +16°C° 0 mm 2 mps 742 mmHg 59%
    21:00 +15°C° 0 mm 2 mps 742 mmHg 61%
    22:00 +15°C° 0 mm 2 mps 742 mmHg 62%
    23:00 +15°C° 0 mm 2 mps 742 mmHg 64%

    Day after tomorrow, 17 October, Wednesday

    Time Temperature Precipitation Wind Pressure Humidity
    00:00 +14°C° 0 mm 2 mps 742 mmHg 65%
    01:00 +14°C° 0 mm 2 mps 742 mmHg 67%
    02:00 +14°C° 0 mm 2 mps 742 mmHg 68%
    03:00 +13°C° 0 mm 2 mps 742 mmHg 70%
    04:00 +13°C° 0 mm 2 mps 742 mmHg 71%
    05:00 +13°C° 0 mm 2 mps 742 mmHg 73%
    06:00 +13°C° 0 mm 2 mps 742 mmHg 72%
    07:00 +14°C° 0 mm 2 mps 742 mmHg 71%
    08:00 +14°C° 0 mm 2 mps 742 mmHg 71%
    09:00 +16°C° 0 mm 2 mps 742 mmHg 64%
    10:00 +19°C° 0 mm 3 mps 742 mmHg 57%
    11:00 +21°C° 0 mm 3 mps 742 mmHg 50%
    12:00 +21°C° 0 mm 3 mps 742 mmHg 47%
    13:00 +22°C° 0 mm 3 mps 742 mmHg 44%
    14:00 +23°C° 0 mm 4 mps 741 mmHg 41%
    15:00 +21°C° 0 mm 3 mps 741 mmHg 45%
    16:00 +20°C° 0 mm 3 mps 741 mmHg 48%
    17:00 +19°C° 0 mm 2 mps 741 mmHg 52%
    18:00 +18°C° 0 mm 2 mps 741 mmHg 54%
    19:00 +17°C° 0 mm 2 mps 741 mmHg 56%
    20:00 +15°C° 0 mm 2 mps 741 mmHg 59%
    21:00 +15°C° 0 mm 2 mps 741 mmHg 60%
    22:00 +14°C° 0 mm 2 mps 741 mmHg 61%
    23:00 +14°C° 0 mm 2 mps 741 mmHg 63%

    18 October, Thursday

    Time Temperature Precipitation Wind Pressure Humidity
    00:00 +13°C° 0 mm 2 mps 741 mmHg 64%
    01:00 +13°C° 0 mm 2 mps 741 mmHg 65%
    02:00 +13°C° 0 mm 2 mps 741 mmHg 66%
    03:00 +12°C° 0 mm 2 mps 741 mmHg 67%
    04:00 +12°C° 0 mm 2 mps 740 mmHg 68%
    05:00 +12°C° 0 mm 2 mps 740 mmHg 70%
    06:00 +12°C° 0 mm 2 mps 740 mmHg 69%
    07:00 +12°C° 0 mm 2 mps 740 mmHg 68%
    08:00 +13°C° 0 mm 2 mps 740 mmHg 67%
    09:00 +14°C° 0 mm 3 mps 740 mmHg 60%
    10:00 +17°C° 0 mm 3 mps 740 mmHg 54%
    11:00 +19°C° 0 mm 3 mps 740 mmHg 47%
    12:00 +20°C° 0 mm 3 mps 740 mmHg 44%
    13:00 +21°C° 0 mm 3 mps 740 mmHg 41%
    14:00 +21°C° 0 mm 3 mps 739 mmHg 38%
    15:00 +20°C° 0 mm 3 mps 739 mmHg 41%
    16:00 +19°C° 0 mm 2 mps 739 mmHg 44%
    17:00 +18°C° 0 mm 2 mps 739 mmHg 47%
    18:00 +17°C° 0 mm 2 mps 739 mmHg 49%
    19:00 +16°C° 0 mm 2 mps 739 mmHg 51%
    20:00 +15°C° 0 mm 2 mps 739 mmHg 52%
    21:00 +14°C° 0 mm 2 mps 739 mmHg 54%
    22:00 +14°C° 0 mm 2 mps 739 mmHg 55%
    23:00 +13°C° 0 mm 2 mps 739 mmHg 57%

    19 October, Friday

    Time Temperature Precipitation Wind Pressure Humidity
    00:00 +13°C° 0 mm 2 mps 738 mmHg 58%
    01:00 +12°C° 0 mm 1 mps 738 mmHg 59%
    02:00 +12°C° 0 mm 1 mps 738 mmHg 60%
    03:00 +12°C° 0 mm 1 mps 738 mmHg 62%
    04:00 +11°C° 0 mm 1 mps 738 mmHg 63%
    05:00 +11°C° 0 mm 1 mps 738 mmHg 64%
    06:00 +11°C° 0 mm 1 mps 738 mmHg 64%
    07:00 +12°C° 0 mm 1 mps 738 mmHg 63%
    08:00 +12°C° 0 mm 1 mps 738 mmHg 63%
    09:00 +14°C° 0 mm 1 mps 738 mmHg 57%
    10:00 +16°C° 0 mm 1 mps 738 mmHg 50%
    11:00 +19°C° 0 mm 1 mps 738 mmHg 44%
    12:00 +20°C° 0 mm 1 mps 738 mmHg 42%
    13:00 +20°C° 0 mm 1 mps 737 mmHg 39%
    14:00 +19°C° 0 mm 0 mps 737 mmHg 36%
    15:00 +18°C° 0 mm 0 mps 737 mmHg 40%
    16:00 +19°C° 0 mm 1 mps 737 mmHg 43%
    17:00 +16°C° 0 mm 1 mps 736 mmHg 47%
    18:00 +16°C° 0 mm 1 mps 736 mmHg 49%
    19:00 +15°C° 0 mm 1 mps 737 mmHg 51%
    20:00 +14°C° 0 mm 1 mps 737 mmHg 52%
    21:00 +14°C° 0 mm 1 mps 737 mmHg 54%
    22:00 +13°C° 0 mm 1 mps 737 mmHg 56%
    23:00 +13°C° 0 mm 1 mps 736 mmHg 58%

    20 October, Saturday

    Time Temperature Precipitation Wind Pressure Humidity
    00:00 +13°C° 0 mm 1 mps 736 mmHg 59%
    01:00 +12°C° 0 mm 1 mps 736 mmHg 61%
    02:00 +12°C° 0 mm 1 mps 736 mmHg 63%
    03:00 +12°C° 0 mm 1 mps 736 mmHg 65%
    04:00 +10°C° 0 mm 2 mps 736 mmHg 67%
    05:00 +10°C° 0 mm 2 mps 736 mmHg 69%
    06:00 +10°C° 0 mm 2 mps 736 mmHg 69%
    07:00 +12°C° 0 mm 2 mps 736 mmHg 69%
    08:00 +12°C° 0 mm 2 mps 737 mmHg 69%
    09:00 +12°C° 0 mm 3 mps 737 mmHg 65%
    10:00 +14°C° 0 mm 3 mps 737 mmHg 61%
    11:00 +17°C° 0 mm 4 mps 737 mmHg 57%
    12:00 +17°C° 0 mm 4 mps 737 mmHg 56%
    13:00 +18°C° 0 mm 4 mps 737 mmHg 55%
    14:00 +17°C° 0 mm 5 mps 737 mmHg 54%
    15:00 +17°C° 0 mm 4 mps 736 mmHg 58%
    16:00 +15°C° 0 mm 4 mps 736 mmHg 62%
    17:00 +14°C° 0 mm 3 mps 736 mmHg 66%
    18:00 +13°C° 0 mm 3 mps 736 mmHg 69%
    19:00 +13°C° 0 mm 3 mps 737 mmHg 72%
    20:00 +12°C° 0 mm 4 mps 737 mmHg 75%
    21:00 +12°C° 0 mm 4 mps 737 mmHg 78%
    22:00 +11°C° 0 mm 4 mps 737 mmHg 80%
    23:00 +11°C° 0 mm 4 mps 737 mmHg 82%
    Show more